Location: *
(40.7190°N, 4.2480°W)
Time: 10:57:09
(UTC+00:00)

STARLINK-1124 - Pass Details

Date: 18 February 2020
Orbit: 548 x 551 km, 53.0° (Epoch: 09 April)

Event Time Altitude Azimuth Distance (km) Brightness Sun altitude
Exits shadow 05:41:49 32° 302° (WNW) 930 4.3 -16.9°
Maximum altitude 05:42:40 36° 330° (NNW) 858 4.3 -16.8°
Drops below altitude 10° 05:46:25 10° 39° (NE) 1,781 6.7 -16.1°
Sets 05:48:46 0° 48° (NE) 2,672 7.8 -15.6°
